FW3988 Weather Reports


time (UTC)temp
C
wind
direction
speed
KPH
gust
KPH
rain 1hr
cm
rain 24hr
cm
rain mn
cm
humidity
%
barometer
mb
20260904221609 33 237 9.7 19.3 0.00 0.00 0.00 69 1008.6
20260904220005 33 271 12.9 17.7 0.00 0.00 0.00 69 1008.8
20260904214504 33 205 11.3 22.5 0.00 0.00 0.00 71 1008.9
20260904213052 33 265 8.0 22.5 0.00 0.00 0.00 70 1009.2
20260904211545 33 250 11.3 19.3 0.00 0.00 0.00 70 1009.1
20260904210138 33 250 9.7 20.9 0.00 0.00 0.00 71 1009.2
20260904204507 33 250 11.3 24.1 0.00 0.00 0.00 70 1009.3
20260904203059 33 230 14.5 24.1 0.00 0.00 0.00 71 1009.7
20260904201553 33 250 14.5 20.9 0.00 0.00 0.00 69 1009.9
20260904200144 33 252 8.0 17.7 0.00 0.00 0.00 69 1010.2
20260904194548 33 230 11.3 22.5 0.00 0.00 0.00 69 1010.5
20260904193032 33 233 12.9 19.3 0.00 0.00 0.00 70 1010.6
20260904191518 33 200 8.0 22.5 0.00 0.00 0.00 71 1010.8
20260904190150 33 215 6.4 19.3 0.00 0.00 0.00 73 1010.9
20260904184523 33 248 6.4 16.1 0.00 0.00 0.00 71 1011.0
20260904183103 33 229 4.8 16.1 0.00 0.00 0.00 70 1011.0
20260904181546 33 219 4.8 12.9 0.00 0.00 0.00 71 1011.1
20260904180141 32 245 6.4 11.3 0.00 0.00 0.00 72 1011.3
20260904174614 32 242 6.4 16.1 0.00 0.00 0.00 73 1011.2
20260904173050 32 228 4.8 11.3 0.00 0.00 0.00 72 1011.3
20260904171600 32 211 3.2 11.3 0.00 0.00 0.00 72 1011.4
20260904170027 32 223 3.2 11.3 0.00 0.00 0.00 71 1011.6
20260904164508 32 215 0.0 11.3 0.00 0.00 0.00 72 1011.6
20260904163106 31 229 8.0 16.1 0.00 0.00 0.00 74 1011.6
20260904161607 32 238 4.8 11.3 0.00 0.00 0.00 73 1011.5
20260904160137 31 225 0.0 12.9 0.00 0.00 0.00 72 1011.4
20260904154525 31 221 1.6 4.8 0.00 0.00 0.00 70 1011.1
20260904153014 31 51 0.0 3.2 0.00 0.00 0.00 71 1011.0
20260904151604 30 51 1.6 6.4 0.00 0.00 0.00 73 1011.0
20260904150146 30 38 4.8 8.0 0.00 0.00 0.00 75 1011.2
20260904144518 29 26 1.6 6.4 0.00 0.00 0.00 78 1011.1
20260904143009 28 37 4.8 8.0 0.00 0.00 0.00 79 1011.0
20260904141552 28 35 3.2 8.0 0.00 0.00 0.00 81 1011.1
20260904140136 27 50 3.2 8.0 0.00 0.00 0.00 83 1011.1
20260904134518 27 52 3.2 12.9 0.00 0.00 0.00 86 1011.2
20260904133006 27 27 4.8 9.7 0.00 0.00 0.00 85 1011.1
20260904131555 27 50 3.2 9.7 0.00 0.00 0.00 85 1011.0
20260904130145 27 40 4.8 11.3 0.00 0.00 0.00 85 1011.0
20260904124528 27 33 4.8 11.3 0.00 0.00 0.00 84 1010.8
20260904123021 27 38 6.4 12.9 0.00 0.00 0.00 82 1010.6
20260904121506 28 39 3.2 8.0 0.00 0.00 0.00 82 1010.7
20260904120028 28 65 1.6 4.8 0.00 0.00 0.00 82 1010.8
20260904114518 28 82 4.8 9.7 0.00 0.00 0.00 82 1010.9
20260904113006 28 126 1.6 12.9 0.00 0.00 0.00 81 1011.4
20260904111555 28 109 4.8 12.9 0.00 0.00 0.00 79 1011.5
20260904110144 28 71 1.6 6.4 0.00 0.00 0.00 79 1011.2
20260904104528 28 94 3.2 8.0 0.00 0.00 0.00 79 1011.3
20260904103022 29 80 1.6 6.4 0.00 0.00 0.00 79 1011.5
20260904101505 29 75 4.8 9.7 0.00 0.00 0.00 79 1011.3
20260904100149 29 53 3.2 9.7 0.00 0.00 0.00 78 1011.4
20260904094529 30 34 3.2 9.7 0.00 0.00 0.00 75 1011.1
20260904093050 30 54 1.6 4.8 0.00 0.00 0.00 74 1011.1
20260904091555 30 338 1.6 4.8 0.00 0.00 0.00 74 1011.0
20260904090141 30 331 4.8 8.0 0.00 0.00 0.00 75 1011.1
20260904084534 30 312 3.2 8.0 0.00 0.00 0.00 77 1011.2
20260904083025 30 325 4.8 8.0 0.00 0.00 0.00 78 1011.3
20260904081513 30 275 1.6 8.0 0.00 0.00 0.00 78 1011.3
20260904080027 30 304 1.6 6.4 0.00 0.00 0.00 78 1011.4
20260904074512 30 306 0.0 12.9 0.00 0.00 0.00 78 1011.4
20260904073103 30 286 4.8 12.9 0.00 0.00 0.00 78 1011.3
20260904071552 30 300 6.4 12.9 0.00 0.00 0.00 78 1011.4
20260904070138 30 282 3.2 6.4 0.00 0.00 0.00 77 1011.5
20260904064529 30 323 4.8 11.3 0.00 0.00 0.00 77 1011.7
20260904063023 30 274 3.2 12.9 0.00 0.00 0.00 76 1011.6
20260904061503 30 325 6.4 14.5 0.00 0.00 0.00 76 1011.5
20260904060013 30 317 1.6 11.3 0.00 0.00 0.00 75 1011.7
20260904054509 30 298 3.2 12.9 0.00 0.00 0.00 76 1011.9
20260904053136 30 311 4.8 12.9 0.00 0.00 0.00 76 1012.1
20260904051543 30 360 6.4 14.5 0.00 0.00 0.00 76 1012.2
20260904050135 31 296 4.8 16.1 0.00 0.00 0.00 75 1012.3
20260904044516 31 296 6.4 17.7 0.00 0.00 0.00 75 1012.2
20260904043013 31 296 8.0 16.1 0.00 0.00 0.00 74 1012.2
20260904041558 31 310 6.4 14.5 0.00 0.00 0.00 75 1012.3
20260904040147 31 311 8.0 16.1 0.00 0.00 0.00 76 1012.3
20260904034526 31 296 9.7 17.7 0.00 0.00 0.00 75 1012.4
20260904033015 31 300 11.3 19.3 0.00 0.00 0.00 75 1012.2
20260904031501 31 257 8.0 22.5 0.00 0.00 0.00 76 1012.1
20260904030005 31 289 8.0 17.7 0.00 0.00 0.00 76 1012.0
20260904024540 31 279 9.7 19.3 0.00 0.00 0.00 75 1011.6
20260904023015 31 278 11.3 16.1 0.00 0.00 0.00 75 1011.5
20260904021600 31 262 9.7 16.1 0.00 0.00 0.00 74 1011.3
20260904021503 31 310 8.0 16.1 0.00 0.00 0.00 74 1011.3
20260904020008 31 279 11.3 20.9 0.00 0.00 0.00 74 1011.2
20260904014649 31 269 6.4 22.5 0.00 0.00 0.00 75 1011.1
20260904013107 31 288 8.0 19.3 0.00 0.00 0.00 74 1010.8
20260904011606 31 270 8.0 20.9 0.00 0.00 0.00 74 1010.7
20260904010150 32 296 11.3 20.9 0.00 0.00 0.00 72 1010.5
20260904004551 32 267 6.4 20.9 0.00 0.00 0.00 71 1010.5
20260904003057 32 239 11.3 20.9 0.00 0.00 0.00 71 1010.3
20260904001542 32 288 9.7 19.3 0.00 0.00 0.00 70 1010.4
20260904000137 32 275 9.7 22.5 0.00 0.00 0.00 70 1010.2
20260903234525 33 250 8.0 16.1 0.00 0.00 0.00 67 1010.1
20260903233019 33 239 11.3 19.3 0.00 0.00 0.00 65 1010.0
20260903231557 33 285 11.3 17.7 0.00 0.00 0.00 61 1010.0
20260903230147 33 275 9.7 19.3 0.00 0.00 0.00 63 1010.0
20260903224548 33 265 11.3 17.7 0.00 0.00 0.00 61 1010.0
20260903223026 33 240 9.7 20.9 0.00 0.00 0.00 62 1010.0